{"data":{"norad_id":60105,"intl_designator":"2024-117Q","name":"STARLINK-32018","alt_names":[],"object_type":"PAYLOAD","status":"ACTIVE","operator":null,"country":"US","launch_date":"2024-06-23","launch_site_code":"AFETR","launch_vehicle":null,"mission":null,"orbit_class":"UNKNOWN","rcs_meters":null,"size_class":null,"mass_kg":null,"dimensions":null,"purposes":["comms"],"wikipedia_slug":null,"has_3d_model":false,"image_url":null,"decayed_at":null,"tle_current":{"epoch":"2026-09-21T13:19:17.880384Z","epoch_age_seconds":86447,"freshness":"FRESH","line1":"1 60105U 24117Q   26264.55506806 -.00000198  00000+0  52746-5 0  9999","line2":"2 60105  53.1605 204.5630 0001441  90.7250 269.3918 15.34389045126916","mean_motion":15.34389045,"eccentricity":0.0001441,"inclination_deg":53.1605,"raan_deg":204.563,"arg_perigee_deg":90.725,"mean_anomaly_deg":269.3918,"bstar":5.2746e-6,"rev_number":12691,"period_min":93.848428121435,"perigee_km":461.75003119887,"apogee_km":463.72157074011,"semimajor_km":6840.8728009695,"source":"CELESTRAK","updated_at":"2026-09-22T09:00:49.152495Z"}}}